This is the latest recevied weather packets stored in our database for station/object AE5HO. If no packets are shown the sender has not sent any weather packets the latest 10 day(s).
| Time | Temp. | Humidity | Pressure | Rain* | Wind** | Luminosity | Snow |
|---|---|---|---|---|---|---|---|
| 1788041651 | 39.44° C | 33% | 1014.4 hPa | 0 mm | - | 48 W/m² | - |
| 1788041346 | 40° C | 32% | 1014.4 hPa | 0 mm | - | 60 W/m² | - |
| 1788041045 | 39.44° C | 33% | 1014.3 hPa | 0 mm | - | 67 W/m² | - |
| 1788040744 | 39.44° C | 34% | 1014.5 hPa | 0 mm | - | 66 W/m² | - |
| 1788040438 | 39.44° C | 35% | 1014.4 hPa | 0 mm | - | 62 W/m² | - |
| 1788040135 | 39.44° C | 34% | 1014.3 hPa | 0 mm | - | 65 W/m² | - |
| 1788039835 | 39.44° C | 35% | 1014.5 hPa | 0 mm | - | 66 W/m² | - |
| 1788039529 | 38.89° C | 38% | 1014.4 hPa | 0 mm | - | 65 W/m² | - |
| 1788039225 | 38.89° C | 36% | 1014.7 hPa | 0 mm | - | 62 W/m² | - |
| 1788038920 | 38.89° C | 35% | 1014.6 hPa | 0 mm | - | 65 W/m² | - |
| 1788038615 | 38.89° C | 36% | 1014.7 hPa | 0 mm | - | 65 W/m² | - |
| 1788038314 | 38.33° C | 36% | 1014.9 hPa | 0 mm | - | 60 W/m² | - |
| 1788038010 | 37.78° C | 37% | 1014.8 hPa | 0 mm | - | 50 W/m² | - |
| 1788037704 | 37.78° C | 37% | 1014.9 hPa | 0 mm | - | 48 W/m² | - |
| 1788037399 | 38.33° C | 36% | 1015.1 hPa | 0 mm | - | 65 W/m² | - |
| 1788037098 | 38.33° C | 37% | 1015.1 hPa | 0 mm | - | 61 W/m² | - |
| 1788036793 | 38.89° C | 37% | 1015.1 hPa | 0 mm | - | 72 W/m² | - |
| 1788036490 | 38.33° C | 36% | 1015.4 hPa | 0 mm | - | 61 W/m² | - |
| 1788036185 | 38.89° C | 36% | 1015.2 hPa | 0 mm | - | 62 W/m² | - |
| 1788035880 | 38.33° C | 35% | 1015.2 hPa | 0 mm | - | 60 W/m² | - |
| 1788035580 | 38.33° C | 36% | 1015.7 hPa | 0 mm | - | 45 W/m² | - |
| 1788035275 | 38.33° C | 37% | 1015.6 hPa | 0 mm | - | 57 W/m² | - |
| 1788034971 | 38.33° C | 35% | 1015.5 hPa | 0 mm | - | 45 W/m² | - |
| 1788034667 | 37.78° C | 37% | 1015.6 hPa | 0 mm | - | 38 W/m² | - |
| 1788034363 | 37.78° C | 37% | 1015.8 hPa | 0 mm | - | 38 W/m² | - |
* Rain latest hour (hover to see other rain measurements)
** Current wind speed in m/s (hover to see current wind gust speed)